Location: Branche des Alpilles
(43.6087°N, 4.6976°E)
Time: 08:40:59
(UTC+00:00)

CENTAUR R/B - Pass Details

Date: 30 November 2020
Orbit: 750 x 1438 km, 63.4° (Epoch: 11 January)

Event Time Altitude Azimuth Distance (km) Brightness Sun altitude
Rises 18:46:34 0° 209° (SSW) 3,349 5.7 -28.4°
Reaches altitude 10° 18:48:51 10° 208° (SSW) 2,485 5.0 -28.8°
Enters shadow 18:53:41 64° 183° (S) 1,034 2.5 -29.7°
